Homer, AK

7:49 AM AKDT on October 17, 2017 (GMT -0800)
Homer

Weather History for PAHO - April, 2013

Change the Weather History Date:

Saturday, April 6, 2013

  Actual Average Record
Temperature  
Mean Temperature 30 °F -  
Max Temperature 34 °F 40 °F 52 °F (1940)
Min Temperature 26 °F 26 °F 6 °F (1956)
Degree Days  
Heating Degree Days 34    
Moisture  
Dew Point 23 °F    
Average Humidity 73    
Maximum Humidity 93    
Minimum Humidity 51    
Precipitation  
Precipitation 0.14 in - - ()
Sea Level Pressure  
Sea Level Pressure 29.47 in    
Wind  
Wind Speed 2 mph (WSW)    
Max Wind Speed 14 mph    
Max Gust Speed 22 mph    
Visibility 6 miles    
Events Snow    
Averages and records for this station are not official NWS values.
T = Trace of Precipitation, MM = Missing Value Source: NWS Daily Summary

Daily Weather History Graph

Daily Weather History Graph

Search for Another Location

Airport or City:

Trip Planner

Search our weather history database for the weather conditions in past years. The results will help you decide how hot, cold, wet, or windy it might be!

Date:

Astronomy

Apr. 06, 2013 Rise Set
Actual Time 7:15 AM AKDT 9:02 PM AKDT
Civil Twilight 6:31 AM AKDT 9:46 PM AKDT
Nautical Twilight 5:36 AM AKDT 10:41 PM AKDT
Astronomical Twilight 4:30 AM AKDT 11:49 PM AKDT
Moon 5:54 AM AKDT (4/6) 4:58 PM AKDT (4/6)
Length of Visible Light 15h 14m
Length of Day
13h 47m
Waning Crescent, 14% of the Moon is Illuminated
Apr 6
Waning Crescent
Apr 10
New
Apr 18
First Quarter
Apr 25
Full
May 2
Last Quarter

Hourly Weather History & Observations

Time (AKDT) Temp. Windchill Dew Point Humidity Pressure Visibility Wind Dir Wind Speed Gust Speed Precip Events Conditions
12:53 AM 33.1 °F - 21.9 °F 64% 29.49 in 10.0 mi Calm Calm - N/A   Overcast
1:53 AM 32.0 °F - 23.0 °F 69% 29.48 in 10.0 mi Calm Calm - N/A   Overcast
2:53 AM 32.0 °F - 25.0 °F 75% 29.47 in 6.0 mi Calm Calm - 0.00 in Snow Light Snow
3:17 AM 32.0 °F 28.7 °F 26.6 °F 80% 29.46 in 8.0 mi ENE 3.5 mph - 0.00 in Snow Light Snow
3:25 AM 32.0 °F - 26.6 °F 80% 29.46 in 7.0 mi Calm Calm - 0.00 in Snow Light Snow
3:42 AM 32.0 °F - 26.6 °F 80% 29.45 in 2.0 mi Calm Calm - 0.01 in Snow Light Snow
3:53 AM 32.0 °F - 27.0 °F 82% 29.46 in 1.8 mi Calm Calm - 0.01 in Snow Light Snow
4:53 AM 30.9 °F - 28.9 °F 92% 29.45 in 1.2 mi Calm Calm - 0.05 in Snow Light Snow
5:44 AM 30.2 °F - 28.4 °F 93% 29.44 in 2.0 mi Calm Calm - 0.03 in Snow Light Snow
5:53 AM 30.9 °F - 27.0 °F 85% 29.44 in 2.0 mi Calm Calm - 0.03 in Snow Light Snow
5:55 AM 30.2 °F - 26.6 °F 86% 29.43 in 1.8 mi Calm Calm - 0.00 in Snow Light Snow
5:57 AM 30.2 °F - 26.6 °F 86% 29.43 in 2.0 mi Calm Calm - 0.01 in Snow Light Snow
6:53 AM 30.0 °F - 27.0 °F 88% 29.44 in 4.0 mi Calm Calm - 0.02 in Snow Light Snow
7:53 AM 30.0 °F - 27.0 °F 88% 29.44 in 3.0 mi Calm Calm - 0.00 in Snow Light Snow
8:53 AM 30.9 °F - 26.1 °F 82% 29.44 in 3.0 mi Calm Calm - 0.00 in Snow Light Snow
9:25 AM 30.2 °F - 26.6 °F 86% 29.44 in 2.0 mi Calm Calm - 0.01 in Snow Light Snow
9:37 AM 30.2 °F - 26.6 °F 86% 29.44 in 3.0 mi Calm Calm - 0.01 in Snow Light Snow
9:53 AM 30.0 °F - 26.1 °F 85% 29.44 in 3.0 mi Calm Calm - 0.01 in Snow Light Snow
10:53 AM 30.0 °F - 26.1 °F 85% 29.45 in 10.0 mi Calm Calm - 0.01 in   Overcast
11:53 AM 30.0 °F 26.5 °F 26.1 °F 85% 29.46 in 5.0 mi SSW 3.5 mph - 0.01 in Snow Light Snow
12:53 PM 32.0 °F 28.7 °F 21.0 °F 64% 29.47 in 10.0 mi WSW 3.5 mph - 0.00 in   Mostly Cloudy
1:53 PM 33.1 °F 25.5 °F 18.0 °F 54% 29.48 in 10.0 mi WSW 9.2 mph - N/A   Scattered Clouds
2:53 PM 33.1 °F 23.9 °F 18.0 °F 54% 29.48 in 10.0 mi SW 12.7 mph - N/A   Scattered Clouds
3:53 PM 33.1 °F 25.5 °F 18.0 °F 54% 29.48 in 10.0 mi SW 9.2 mph - N/A   Partly Cloudy
4:53 PM 34.0 °F 26.6 °F 19.9 °F 56% 29.48 in 10.0 mi WSW 9.2 mph - N/A   Partly Cloudy
5:53 PM 32.0 °F 23.0 °F 18.0 °F 56% 29.49 in 10.0 mi West 11.5 mph - N/A   Partly Cloudy
6:53 PM 32.0 °F 24.2 °F 19.0 °F 59% 29.50 in 10.0 mi West 9.2 mph - N/A   Partly Cloudy
7:53 PM 30.9 °F 20.7 °F 19.0 °F 61% 29.51 in 10.0 mi WSW 13.8 mph - N/A   Scattered Clouds
8:53 PM 28.9 °F 19.2 °F 12.9 °F 51% 29.53 in 10.0 mi WSW 11.5 mph - N/A   Partly Cloudy
9:53 PM 27.0 °F 16.7 °F 12.0 °F 53% 29.55 in 10.0 mi WSW 11.5 mph - N/A   Clear
10:53 PM 27.0 °F 16.1 °F 10.9 °F 51% 29.56 in 10.0 mi WSW 12.7 mph - N/A   Clear
11:53 PM 26.1 °F 15.6 °F 10.0 °F 51% 29.58 in 10.0 mi WSW 11.5 mph 21.9 mph N/A   Clear